Regional Weather Roundup
Issued by NWS Sioux Falls, SD

Home | Current Version | Previous Version | Text Only | Print | Product List | Glossary Off
Versions: 1 2 3 4 5 6 7 8 9 10 11 12 13 14 15 16 17 18 19 20 21 22 23 24 25 26 27 28 29 30 31 32 33 34 35 36 37 38 39 40 41 42 43 44 45 46 47 48 49 50

000
ASUS43 KFSD 281010
RWRFSD

WEATHER ROUNDUP FOR SE SOUTH DAKOTA/SW MINNESOTA/NW IOWA
NATIONAL WEATHER SERVICE SIOUX FALLS SD
500 AM CDT THU APR 28 2016

NOTE: "FAIR" INDICATES FEW OR NO CLOUDS BELOW 12,000 FEET WITH NO
SIGNIFICANT WEATHER AND OR OBSTRUCTIONS TO VISIBILITY.


SDZ038>040-050-052>070-281100-
SOUTHEAST SOUTH DAKOTA

CITY           SKY/WX    TMP DP  RH WIND       PRES   REMARKS
BROOKINGS      LGT RAIN  38  36  92 NE10G21   29.83R
CHAMBERLAIN    CLOUDY    38  37  98 N13       29.90R
HURON          CLOUDY    38  35  89 NE12      29.89R
MADISON        LGT RAIN  37  37 100 NE15      29.82R
MITCHELL       LGT RAIN  42  40  92 NE18      29.86R
SIOUX FALLS    LGT RAIN  40  37  89 NE14      29.80R
WINNER         LGT RAIN  39  36  89 NW10      29.89R FOG
YANKTON        CLOUDY    43  37  81 N9        29.80R
$$

MNZ071-072-080-081-089-090-097-098-281100-
SOUTHWEST MINNESOTA

CITY           SKY/WX    TMP DP  RH WIND       PRES   REMARKS
FAIRMONT       CLOUDY    39  30  70 NE15G21   29.79R
JACKSON        LGT SNOW  37  36  93 NE18G26   29.78S
LUVERNE        LGT RAIN  37  36  93 NE15G22   29.79R
MARSHALL       LGT SNOW  38  36  92 E16       29.86R FOG
MONTEVIDEO     CLOUDY    37  34  87 E12       29.92R
PIPESTONE      LGT RAIN  39  37  93 E15G23    29.80R
REDWOOD FALLS  RAIN      39  37  92 NE8       29.87R FOG
TRACY          RAIN      38  38  97 E15G21    29.85R
WINDOM         DRIZZLE   37  37 100 NE17      29.81R
WORTHINGTON    CLOUDY    38  37  97 NE21      29.77S
$$

IAZ001>003-012>014-020>022-031-032-NEZ013-014-SDZ071-281100-
NORTHWEST IOWA

CITY           SKY/WX    TMP DP  RH WIND       PRES   REMARKS
CHEROKEE       RAIN      41  41 100 NE9       29.72R
DENISON        CLOUDY    45  45 100 N6        29.67R FOG
ESTHERVILLE    CLOUDY    39  39 100 NE20      29.76R FOG
LE MARS        CLOUDY    43  41  93 NE12      29.75R
ORANGE CITY    CLOUDY    41  39  93 NE9G16    29.75R
SHELDON        CLOUDY    41  39  93 NE21G26   29.73R
SIOUX CITY     LGT RAIN  45  41  86 NE10      29.74R
SPENCER        CLOUDY    41  38  89 NE20      29.74R
STORM LAKE     LGT RAIN  43  41  93 NE17G25   29.71R
$$

ABBREVIATIONS USED IN REMARKS
   TC - TEMPERATURE IN CELSIUS
  WCI - WIND CHILL INDEX
   HX - HEAT INDEX
  VSB - VISIBILITY





USA.gov is the U.S. government's official web portal to all federal, state and local government web resources and services.